UAE707 OMDB-FSIA

Flight info

Callsign UAE707
Flight time N/A
Altitude 34000
Route ANVIX7F ANVIX R401 GIDIS G783 UKRAG L710 DEDSO R401 SUHIL UM314 IMTIP DCT EPNOR T144 ROUTY ROUTY1D
Aircraft B772/H-V/N

Departure

Time N/A
Airport Dubai International Airport (OMDB)

Arrival

Time 2026-04-17 22:39
Airport Seychelles International Airport (FSIA)
Time Latitude Longitude Altitude Speed Heading
2026-04-17 19:37 24.38346 55.72582 29759 ft 424 kts 225°
2026-04-17 19:37 24.36670 55.70840 30076 ft 428 kts 224°
2026-04-17 19:38 24.33081 55.67296 30512 ft 441 kts 223°
2026-04-17 19:38 24.30839 55.65174 30773 ft 447 kts 222°
2026-04-17 19:38 24.28474 55.63011 31012 ft 446 kts 219°
2026-04-17 19:38 24.25951 55.61044 31231 ft 443 kts 213°
2026-04-17 19:39 24.23164 55.59592 31470 ft 449 kts 200°
2026-04-17 19:39 24.20109 55.58769 31739 ft 452 kts 192°
2026-04-17 19:39 24.17018 55.58209 31978 ft 447 kts 191°
2026-04-17 19:39 24.13999 55.57526 32215 ft 441 kts 197°
2026-04-17 19:40 24.11079 55.56535 32452 ft 438 kts 201°
2026-04-17 19:40 24.08206 55.55436 32717 ft 443 kts 200°
2026-04-17 19:40 24.05244 55.54400 33016 ft 448 kts 198°
2026-04-17 19:40 24.02228 55.53474 33344 ft 450 kts 197°
2026-04-17 19:41 23.99188 55.52602 33658 ft 452 kts 196°
2026-04-17 19:41 23.96133 55.51731 33935 ft 455 kts 197°
2026-04-17 19:41 23.93039 55.50834 33985 ft 463 kts 197°
2026-04-17 19:42 23.86720 55.48956 34004 ft 482 kts 197°
2026-04-17 19:42 23.80140 55.46989 34019 ft 495 kts 197°
2026-04-17 19:43 23.73458 55.44999 34010 ft 499 kts 197°
2026-04-17 19:43 23.66755 55.43005 34007 ft 500 kts 197°
2026-04-17 19:44 23.60028 55.41005 34002 ft 501 kts 197°
2026-04-17 19:44 23.53307 55.39211 33988 ft 490 kts 191°
2026-04-17 19:44 23.49941 55.38936 33983 ft 494 kts 178°
2026-04-17 19:45 23.46527 55.39663 34007 ft 504 kts 162°
2026-04-17 19:45 23.40122 55.42661 34002 ft 497 kts 160°
2026-04-17 19:45 23.36961 55.43732 33996 ft 496 kts 171°
2026-04-17 19:46 23.33581 55.44407 34079 ft 495 kts 171°
2026-04-17 19:46 23.26757 55.45972 34006 ft 499 kts 167°
2026-04-17 19:47 23.20138 55.47946 34010 ft 489 kts 164°
2026-04-17 19:47 23.13708 55.50216 34004 ft 494 kts 163°
2026-04-17 19:47 23.10383 55.51345 33953 ft 506 kts 169°
2026-04-17 19:48 23.06954 55.52463 34002 ft 517 kts 169°
2026-04-17 19:48 23.03445 55.53520 34006 ft 529 kts 168°
2026-04-17 19:48 22.99882 55.54548 34018 ft 540 kts 168°
2026-04-17 19:48 22.96165 55.55631 34023 ft 552 kts 168°
2026-04-17 19:49 22.92459 55.56732 34018 ft 563 kts 167°
2026-04-17 19:49 22.88643 55.57889 34020 ft 574 kts 167°
2026-04-17 19:49 22.84754 55.59083 34017 ft 583 kts 167°
2026-04-17 19:50 22.76876 55.61512 34016 ft 598 kts 167°
2026-04-17 19:50 22.68770 55.63992 34011 ft 608 kts 167°
2026-04-17 19:51 22.60669 55.66457 34001 ft 606 kts 167°
2026-04-17 19:51 22.52544 55.68943 34007 ft 605 kts 166°
2026-04-17 19:52 22.44419 55.71437 34001 ft 606 kts 166°
2026-04-17 19:52 22.36338 55.73912 34004 ft 604 kts 167°
2026-04-17 19:53 22.28226 55.76375 33996 ft 604 kts 167°
2026-04-17 19:53 22.20045 55.78385 33984 ft 598 kts 175°
2026-04-17 19:54 22.11866 55.79305 34004 ft 590 kts 181°
2026-04-17 19:54 22.03590 55.79122 34033 ft 605 kts 185°
2026-04-17 19:55 21.95155 55.79342 34006 ft 605 kts 176°
2026-04-17 19:55 21.86808 55.80643 34012 ft 616 kts 172°
2026-04-17 19:56 21.78189 55.81970 34017 ft 631 kts 175°
2026-04-17 19:56 21.69381 55.82875 34013 ft 638 kts 177°
2026-04-17 19:57 21.60525 55.83672 34005 ft 638 kts 177°
2026-04-17 19:57 21.51720 55.84490 34000 ft 637 kts 177°
2026-04-17 19:58 21.42879 55.85359 34018 ft 637 kts 176°
2026-04-17 19:58 21.34096 55.86231 33998 ft 636 kts 176°
2026-04-17 19:59 21.25254 55.87090 34005 ft 635 kts 177°
2026-04-17 19:59 21.16499 55.87932 33994 ft 634 kts 177°
2026-04-17 20:00 21.07706 55.88777 33996 ft 632 kts 177°
2026-04-17 20:00 20.98977 55.89614 34008 ft 632 kts 177°
2026-04-17 20:01 20.90223 55.90452 33997 ft 632 kts 177°
2026-04-17 20:01 20.81532 55.91290 34004 ft 632 kts 177°
2026-04-17 20:02 20.72745 55.92154 34008 ft 632 kts 177°
2026-04-17 20:02 20.64016 55.93017 34011 ft 632 kts 177°
2026-04-17 20:03 20.55232 55.93881 34009 ft 632 kts 177°
2026-04-17 20:03 20.46472 55.94738 33999 ft 631 kts 177°
2026-04-17 20:04 20.37765 55.95587 34007 ft 632 kts 177°
2026-04-17 20:04 20.28993 55.96443 34010 ft 632 kts 177°
2026-04-17 20:05 20.20260 55.97276 34004 ft 631 kts 177°
2026-04-17 20:05 20.11487 55.98105 33996 ft 630 kts 177°
2026-04-17 20:06 20.02880 55.98731 33990 ft 614 kts 181°
2026-04-17 20:06 19.94389 55.98896 33994 ft 605 kts 184°
2026-04-17 20:07 19.86053 55.98948 34009 ft 602 kts 183°
2026-04-17 20:07 19.77665 55.99105 33991 ft 599 kts 182°
2026-04-17 20:08 19.69356 55.99330 33970 ft 590 kts 171°
2026-04-17 20:08 19.65372 55.99340 33742 ft 562 kts 184°
2026-04-17 20:08 19.61453 55.99427 33917 ft 569 kts 182°
2026-04-17 20:09 19.53581 55.99524 34010 ft 572 kts 182°
2026-04-17 20:09 19.49548 55.99652 34013 ft 584 kts 182°
2026-04-17 20:09 19.45448 55.99771 34027 ft 594 kts 182°
2026-04-17 20:10 19.37090 55.99986 34020 ft 613 kts 182°
2026-04-17 20:10 19.28444 56.00211 34018 ft 627 kts 182°
2026-04-17 20:11 19.19696 56.00459 34004 ft 627 kts 182°
2026-04-17 20:11 19.11025 56.00712 33996 ft 624 kts 182°
2026-04-17 20:12 19.02374 56.00937 33989 ft 617 kts 183°
2026-04-17 20:12 18.93930 56.00611 33977 ft 599 kts 194°
2026-04-17 20:12 18.89877 55.99653 34005 ft 592 kts 206°
2026-04-17 20:13 18.86030 55.98187 34005 ft 583 kts 210°
2026-04-17 20:13 18.78426 55.95285 33989 ft 583 kts 204°
2026-04-17 20:13 18.74490 55.94146 34010 ft 592 kts 190°
2026-04-17 20:14 18.70668 55.92940 34259 ft 566 kts 205°
2026-04-17 20:14 18.66740 55.92111 34184 ft 585 kts 197°
2026-04-17 20:14 18.62688 55.91522 34121 ft 586 kts 197°
2026-04-17 20:15 18.54632 55.90289 33998 ft 578 kts 199°
2026-04-17 20:15 18.46972 55.88233 34004 ft 566 kts 205°
2026-04-17 20:15 18.43144 55.87087 34023 ft 578 kts 204°
2026-04-17 20:16 18.39201 55.86045 34024 ft 591 kts 201°
2026-04-17 20:16 18.35131 55.85110 34011 ft 602 kts 199°
2026-04-17 20:16 18.30968 55.84305 34010 ft 608 kts 197°
2026-04-17 20:17 18.22700 55.83088 33989 ft 598 kts 193°
2026-04-17 20:17 18.14417 55.82148 34002 ft 602 kts 194°
2026-04-17 20:18 18.06042 55.81015 34028 ft 617 kts 197°
2026-04-17 20:18 17.97470 55.79558 34010 ft 629 kts 199°
2026-04-17 20:19 17.90286 55.78235 33997 ft 633 kts 197°
2026-04-17 20:19 17.80165 55.76412 34008 ft 638 kts 197°
2026-04-17 20:20 17.72853 55.75170 34008 ft 640 kts 196°
2026-04-17 20:20 17.64024 55.73704 34000 ft 640 kts 196°
2026-04-17 20:21 17.55212 55.72229 34000 ft 639 kts 196°
2026-04-17 20:21 17.46485 55.70743 34001 ft 637 kts 196°
2026-04-17 20:22 17.37723 55.69245 34000 ft 636 kts 196°
2026-04-17 20:22 17.29016 55.67762 34011 ft 636 kts 196°
2026-04-17 20:23 17.20272 55.66278 34004 ft 636 kts 196°
2026-04-17 20:23 17.11572 55.64805 33999 ft 635 kts 196°
2026-04-17 20:24 17.02818 55.63323 34001 ft 635 kts 196°
2026-04-17 20:24 16.94084 55.61845 34001 ft 635 kts 196°
2026-04-17 20:25 16.85361 55.60380 34001 ft 636 kts 195°
2026-04-17 20:25 16.76671 55.59107 33985 ft 627 kts 194°
2026-04-17 20:26 16.68042 55.58145 33989 ft 620 kts 192°
2026-04-17 20:26 16.59445 55.57259 34009 ft 624 kts 192°
2026-04-17 20:27 16.50763 55.56229 34015 ft 637 kts 193°
2026-04-17 20:27 16.41882 55.55088 34004 ft 641 kts 193°
2026-04-17 20:28 16.33023 55.53956 33998 ft 639 kts 193°
2026-04-17 20:28 16.24259 55.52862 33997 ft 638 kts 193°
2026-04-17 20:29 16.15430 55.51770 34003 ft 637 kts 193°
2026-04-17 20:29 16.06653 55.50682 33999 ft 638 kts 193°
2026-04-17 20:30 15.93392 55.49032 34001 ft 638 kts 193°
2026-04-17 20:30 15.84596 55.47938 34002 ft 639 kts 193°
2026-04-17 20:31 15.75753 55.46842 34000 ft 639 kts 193°
2026-04-17 20:31 15.66960 55.45752 34002 ft 639 kts 193°
2026-04-17 20:32 15.58115 55.44658 34002 ft 639 kts 193°
2026-04-17 20:32 15.49256 55.43562 34000 ft 639 kts 193°
2026-04-17 20:33 15.40435 55.42473 34020 ft 634 kts 193°
2026-04-17 20:33 15.31710 55.41395 34006 ft 638 kts 193°
2026-04-17 20:34 15.22864 55.40300 33989 ft 639 kts 193°
2026-04-17 20:34 15.14020 55.39208 34005 ft 641 kts 193°
2026-04-17 20:35 15.05126 55.38093 34007 ft 643 kts 193°
2026-04-17 20:35 14.96270 55.36979 34000 ft 644 kts 193°
2026-04-17 20:36 14.87384 55.35868 33999 ft 642 kts 193°
2026-04-17 20:36 14.78510 55.34762 34000 ft 641 kts 193°
2026-04-17 20:37 14.69710 55.33665 34000 ft 639 kts 193°
2026-04-17 20:37 14.60854 55.32559 34001 ft 638 kts 193°
2026-04-17 20:38 14.52100 55.31467 34002 ft 638 kts 193°
2026-04-17 20:38 14.43244 55.30363 34001 ft 638 kts 193°
2026-04-17 20:39 14.34468 55.29271 34003 ft 638 kts 193°
2026-04-17 20:39 14.25637 55.28173 34001 ft 638 kts 193°
2026-04-17 20:40 14.16779 55.27073 34001 ft 639 kts 193°
2026-04-17 20:40 14.08004 55.25984 34008 ft 639 kts 193°
2026-04-17 20:41 13.99192 55.24890 33996 ft 639 kts 193°
2026-04-17 20:41 13.90333 55.23792 34005 ft 639 kts 193°
2026-04-17 20:42 13.81482 55.22687 33999 ft 639 kts 193°
2026-04-17 20:42 13.72711 55.21580 34003 ft 639 kts 193°
2026-04-17 20:43 13.63881 55.20464 34000 ft 639 kts 193°
2026-04-17 20:43 13.55067 55.19355 34006 ft 639 kts 193°
2026-04-17 20:44 13.46222 55.18244 33995 ft 639 kts 193°
2026-04-17 20:44 13.37364 55.17135 34006 ft 639 kts 193°
2026-04-17 20:45 13.28606 55.16037 34010 ft 639 kts 193°
2026-04-17 20:45 13.19722 55.14923 34009 ft 639 kts 193°
2026-04-17 20:46 13.10937 55.13824 33998 ft 639 kts 193°
2026-04-17 20:46 13.02114 55.12721 34008 ft 639 kts 193°
2026-04-17 20:47 12.93263 55.11612 34013 ft 640 kts 193°
2026-04-17 20:47 12.84406 55.10505 33990 ft 640 kts 193°
2026-04-17 20:48 12.75603 55.09409 34010 ft 639 kts 193°
2026-04-17 20:48 12.66762 55.08307 34001 ft 638 kts 193°
2026-04-17 20:49 12.57999 55.07214 34006 ft 638 kts 193°
2026-04-17 20:49 12.49166 55.06112 33998 ft 638 kts 193°
2026-04-17 20:50 12.40317 55.05011 34005 ft 638 kts 193°
2026-04-17 20:50 12.31544 55.03919 34005 ft 638 kts 193°
2026-04-17 20:51 12.22743 55.02824 33997 ft 640 kts 193°
2026-04-17 20:51 12.13872 55.01722 34002 ft 639 kts 193°
2026-04-17 20:52 12.05085 55.00631 34017 ft 639 kts 193°
2026-04-17 20:52 11.96300 54.99707 33976 ft 630 kts 188°
2026-04-17 20:53 11.87548 54.99687 33991 ft 627 kts 182°
2026-04-17 20:53 11.78845 54.99990 34011 ft 632 kts 182°
2026-04-17 20:54 11.69952 55.00098 34018 ft 646 kts 185°
2026-04-17 20:54 11.60968 55.00034 34010 ft 648 kts 185°
2026-04-17 20:55 11.51946 54.99983 34001 ft 647 kts 185°
2026-04-17 20:55 11.42919 54.99995 34006 ft 647 kts 184°
2026-04-17 20:56 11.33923 55.00008 34006 ft 645 kts 184°
2026-04-17 20:56 11.24987 55.00006 34009 ft 645 kts 185°
2026-04-17 20:57 11.15997 55.00001 33998 ft 645 kts 185°
2026-04-17 20:57 11.07001 54.99998 34005 ft 645 kts 185°
2026-04-17 20:58 10.98066 54.99999 33999 ft 646 kts 185°
2026-04-17 20:58 10.89027 54.99999 34011 ft 648 kts 184°
2026-04-17 20:59 10.80043 54.99999 33992 ft 648 kts 185°
2026-04-17 20:59 10.71033 55.00001 34000 ft 647 kts 185°
2026-04-17 21:00 10.62011 55.00001 34007 ft 646 kts 185°
2026-04-17 21:00 10.53082 55.00000 33996 ft 646 kts 185°
2026-04-17 21:01 10.44089 55.00000 34004 ft 646 kts 185°
2026-04-17 21:01 10.35081 55.00000 34003 ft 646 kts 185°
2026-04-17 21:02 10.26086 55.00000 34008 ft 646 kts 184°
2026-04-17 21:02 10.17110 54.99999 34000 ft 648 kts 185°
2026-04-17 21:03 10.08087 54.99999 34003 ft 648 kts 184°
2026-04-17 21:03 9.99101 55.00000 33989 ft 647 kts 185°
2026-04-17 21:04 9.90073 55.00001 34001 ft 646 kts 185°
2026-04-17 21:04 9.81113 55.00001 34008 ft 645 kts 185°
2026-04-17 21:05 9.72103 55.00000 33998 ft 646 kts 185°
2026-04-17 21:05 9.63163 55.00000 34000 ft 646 kts 185°
2026-04-17 21:06 9.54161 55.00000 34012 ft 646 kts 184°
2026-04-17 21:06 9.45137 54.99999 33992 ft 647 kts 185°
2026-04-17 21:07 9.36162 55.00000 33999 ft 646 kts 185°
2026-04-17 21:07 9.28662 55.00000 34005 ft 646 kts 185°
2026-04-17 21:08 9.19641 55.00000 33999 ft 646 kts 185°
2026-04-17 21:08 9.10682 55.00000 34002 ft 646 kts 185°
2026-04-17 21:09 9.01680 55.00000 34001 ft 646 kts 185°
2026-04-17 21:09 8.92714 55.00000 34002 ft 646 kts 185°
2026-04-17 21:10 8.83712 54.99999 34019 ft 647 kts 184°
2026-04-17 21:10 8.74716 54.99998 33994 ft 648 kts 185°
2026-04-17 21:11 8.65693 55.00000 34007 ft 647 kts 184°
2026-04-17 21:11 8.56674 55.00002 33996 ft 646 kts 185°
2026-04-17 21:12 8.47674 55.00001 34004 ft 646 kts 185°
2026-04-17 21:12 8.38679 55.00000 34008 ft 646 kts 185°
2026-04-17 21:13 8.29742 55.00000 34005 ft 646 kts 185°
2026-04-17 21:13 8.20708 55.00000 34004 ft 646 kts 184°
2026-04-17 21:14 8.11725 55.00000 34005 ft 646 kts 185°
2026-04-17 21:14 8.02711 54.99999 34004 ft 646 kts 185°
2026-04-17 21:15 7.93750 55.00000 34002 ft 646 kts 185°
2026-04-17 21:15 7.84732 55.00000 34001 ft 646 kts 185°
2026-04-17 21:16 7.75799 55.00000 34003 ft 646 kts 185°
2026-04-17 21:16 7.66774 55.00000 34000 ft 646 kts 185°
2026-04-17 21:17 7.57810 55.00000 34002 ft 646 kts 185°
2026-04-17 21:17 7.48796 55.00000 33999 ft 646 kts 185°
2026-04-17 21:18 7.39786 55.00000 33999 ft 648 kts 185°
2026-04-17 21:18 7.30812 55.00000 33999 ft 647 kts 185°
2026-04-17 21:19 7.21813 55.00000 34003 ft 646 kts 185°
2026-04-17 21:19 7.12800 55.00000 34000 ft 646 kts 185°
2026-04-17 21:20 7.03836 55.00000 34013 ft 646 kts 184°
2026-04-17 21:20 6.94806 55.00000 33994 ft 647 kts 185°
2026-04-17 21:21 6.85851 55.00000 34008 ft 646 kts 185°
2026-04-17 21:21 6.76835 54.99999 33999 ft 647 kts 185°
2026-04-17 21:22 6.67795 55.00000 34005 ft 646 kts 184°
2026-04-17 21:22 6.58830 55.00001 34002 ft 646 kts 185°
2026-04-17 21:23 6.49832 55.00001 33999 ft 646 kts 185°
2026-04-17 21:23 6.40867 55.00000 34006 ft 646 kts 185°
2026-04-17 21:24 6.31858 55.00000 34000 ft 646 kts 185°
2026-04-17 21:24 6.22916 55.00000 34003 ft 646 kts 185°
2026-04-17 21:25 6.13902 55.00000 34002 ft 646 kts 185°
2026-04-17 21:25 6.04882 55.00000 34009 ft 646 kts 184°
2026-04-17 21:26 5.95921 55.00000 33996 ft 647 kts 185°
2026-04-17 21:26 5.86918 55.00000 34003 ft 646 kts 185°
2026-04-17 21:27 5.77908 55.00000 33998 ft 647 kts 185°
2026-04-17 21:27 5.68949 55.00000 34008 ft 647 kts 184°
2026-04-17 21:28 5.59919 54.99998 34020 ft 649 kts 184°
2026-04-17 21:28 5.50865 55.00000 33991 ft 648 kts 184°
2026-04-17 21:29 5.41902 55.00001 34006 ft 647 kts 184°
2026-04-17 21:29 5.33007 55.00265 33985 ft 634 kts 180°
2026-04-17 21:30 5.24224 55.00977 33990 ft 628 kts 178°
2026-04-17 21:30 5.15564 55.01775 33995 ft 623 kts 178°
2026-04-17 21:31 5.07000 55.02466 33994 ft 619 kts 179°
2026-04-17 21:31 4.98386 55.03077 33999 ft 617 kts 180°
2026-04-17 21:32 4.89831 55.03674 34002 ft 615 kts 179°
2026-04-17 21:32 4.81323 55.04289 33999 ft 614 kts 179°
2026-04-17 21:33 4.72856 55.04917 34001 ft 613 kts 179°
2026-04-17 21:33 4.64313 55.05551 34007 ft 612 kts 179°
2026-04-17 21:34 4.55797 55.06178 33995 ft 612 kts 179°
2026-04-17 21:35 4.43095 55.07110 34006 ft 611 kts 179°
2026-04-17 21:35 4.34594 55.07734 33995 ft 611 kts 179°
2026-04-17 21:36 4.26163 55.08354 34016 ft 611 kts 179°
2026-04-17 21:36 4.17657 55.08978 34001 ft 611 kts 179°
2026-04-17 21:37 4.09209 55.09599 34007 ft 611 kts 179°
2026-04-17 21:37 4.00700 55.10223 34008 ft 611 kts 179°
2026-04-17 21:38 3.92204 55.10844 33996 ft 611 kts 179°
2026-04-17 21:38 3.83761 55.11462 34006 ft 611 kts 179°
2026-04-17 21:39 3.75269 55.12084 34001 ft 611 kts 179°
2026-04-17 21:39 3.66822 55.12702 33999 ft 611 kts 179°
2026-04-17 21:40 3.58337 55.13323 34003 ft 611 kts 179°
2026-04-17 21:40 3.49883 55.13942 33997 ft 611 kts 179°
2026-04-17 21:41 3.41433 55.14560 34001 ft 610 kts 179°
2026-04-17 21:41 3.32924 55.15182 34011 ft 610 kts 179°
2026-04-17 21:42 3.24431 55.15802 33997 ft 613 kts 179°
2026-04-17 21:42 3.15952 55.16422 34008 ft 613 kts 179°
2026-04-17 21:43 3.07432 55.17045 33994 ft 613 kts 179°
2026-04-17 21:43 2.98957 55.17666 33996 ft 613 kts 179°
2026-04-17 21:44 2.90434 55.18289 34006 ft 612 kts 179°
2026-04-17 21:44 2.81972 55.18907 33998 ft 611 kts 179°
2026-04-17 21:45 2.73478 55.19528 34004 ft 611 kts 179°
2026-04-17 21:45 2.64975 55.20148 34002 ft 611 kts 179°
2026-04-17 21:46 2.56517 55.20765 34012 ft 613 kts 179°
2026-04-17 21:46 2.48023 55.21385 33991 ft 614 kts 179°
2026-04-17 21:47 2.39491 55.22009 33995 ft 613 kts 179°
2026-04-17 21:47 2.30961 55.22632 34014 ft 613 kts 179°
2026-04-17 21:48 2.22485 55.23251 34008 ft 612 kts 179°
2026-04-17 21:48 2.13952 55.23874 33996 ft 612 kts 179°
2026-04-17 21:49 2.05508 55.24490 34005 ft 612 kts 179°
2026-04-17 21:49 1.97011 55.25110 34000 ft 611 kts 179°
2026-04-17 21:50 1.88522 55.25730 34000 ft 611 kts 179°
2026-04-17 21:50 1.80066 55.26347 34010 ft 611 kts 179°
2026-04-17 21:51 1.71550 55.26967 33992 ft 612 kts 179°
2026-04-17 21:51 1.63100 55.27584 34004 ft 611 kts 179°
2026-04-17 21:52 1.54599 55.28205 34010 ft 611 kts 179°
2026-04-17 21:52 1.46088 55.28825 33990 ft 612 kts 179°
2026-04-17 21:53 1.39029 55.29340 34005 ft 611 kts 179°
2026-04-17 21:53 1.29097 55.30023 34022 ft 624 kts 180°
2026-04-17 21:54 1.21771 55.30316 34029 ft 638 kts 183°
2026-04-17 21:54 1.12751 55.30400 33989 ft 650 kts 184°
2026-04-17 21:55 1.03778 55.30462 33998 ft 647 kts 184°
2026-04-17 21:55 0.94763 55.30643 34022 ft 646 kts 182°
2026-04-17 21:56 0.85756 55.30904 33997 ft 648 kts 182°
2026-04-17 21:56 0.76733 55.31175 34006 ft 648 kts 182°
2026-04-17 21:57 0.67759 55.31418 33993 ft 646 kts 182°
2026-04-17 21:57 0.58746 55.31643 34003 ft 646 kts 182°
2026-04-17 21:58 0.49787 55.31863 34000 ft 646 kts 182°
2026-04-17 21:58 0.40792 55.32090 34010 ft 647 kts 182°
2026-04-17 21:59 0.31832 55.32321 33996 ft 648 kts 182°
2026-04-17 21:59 0.22817 55.32555 34003 ft 648 kts 182°
2026-04-17 22:00 0.13781 55.32788 34005 ft 648 kts 182°
2026-04-17 22:00 0.04817 55.33018 33997 ft 648 kts 182°
2026-04-17 22:01 -0.04226 55.33249 34007 ft 648 kts 182°
2026-04-17 22:01 -0.13242 55.33480 34000 ft 648 kts 182°
2026-04-17 22:02 -0.22236 55.33710 34012 ft 649 kts 182°
2026-04-17 22:02 -0.31302 55.33943 33995 ft 648 kts 182°
2026-04-17 22:03 -0.40257 55.34174 34006 ft 648 kts 182°
2026-04-17 22:03 -0.49300 55.34405 34003 ft 650 kts 182°
2026-04-17 22:04 -0.58347 55.34637 34003 ft 649 kts 182°
2026-04-17 22:04 -0.67339 55.34868 33987 ft 649 kts 182°
2026-04-17 22:05 -0.76361 55.35101 33999 ft 647 kts 182°
2026-04-17 22:05 -0.85354 55.35332 34000 ft 646 kts 182°
2026-04-17 22:06 -0.94318 55.35561 34014 ft 646 kts 182°
2026-04-17 22:06 -1.03327 55.35790 33994 ft 648 kts 182°
2026-04-17 22:07 -1.12317 55.36021 34009 ft 647 kts 182°
2026-04-17 22:07 -1.21348 55.36254 33996 ft 647 kts 182°
2026-04-17 22:08 -1.30374 55.36486 33992 ft 648 kts 182°
2026-04-17 22:08 -1.39334 55.36716 34008 ft 647 kts 182°
2026-04-17 22:09 -1.48352 55.36947 34002 ft 648 kts 182°
2026-04-17 22:09 -1.57336 55.37178 34016 ft 648 kts 182°
2026-04-17 22:10 -1.66387 55.37409 33988 ft 649 kts 182°
2026-04-17 22:10 -1.75426 55.37642 34005 ft 648 kts 182°
2026-04-17 22:11 -1.84389 55.37873 34018 ft 649 kts 182°
2026-04-17 22:11 -1.93459 55.38104 33991 ft 650 kts 182°
2026-04-17 22:12 -2.02495 55.38337 33994 ft 649 kts 182°
2026-04-17 22:12 -2.11483 55.38569 33994 ft 647 kts 182°
2026-04-17 22:13 -2.20478 55.38811 33997 ft 638 kts 182°
2026-04-17 22:13 -2.24840 55.38966 33975 ft 617 kts 182°
2026-04-17 22:13 -2.28701 55.39126 33979 ft 600 kts 182°
2026-04-17 22:13 -2.32789 55.39305 33987 ft 583 kts 182°
2026-04-17 22:14 -2.36812 55.39480 33985 ft 578 kts 182°
2026-04-17 22:14 -2.44931 55.39793 33647 ft 588 kts 183°
2026-04-17 22:14 -2.49020 55.39945 33164 ft 585 kts 184°
2026-04-17 22:15 -2.53028 55.40101 32711 ft 579 kts 185°
2026-04-17 22:15 -2.57039 55.40263 32269 ft 572 kts 186°
2026-04-17 22:15 -2.60998 55.40426 31821 ft 566 kts 188°
2026-04-17 22:15 -2.64923 55.40586 31383 ft 559 kts 189°
2026-04-17 22:16 -2.68801 55.40741 30975 ft 552 kts 190°
2026-04-17 22:16 -2.72563 55.40886 30508 ft 545 kts 191°
2026-04-17 22:16 -2.76369 55.41031 30053 ft 538 kts 192°
2026-04-17 22:16 -2.80039 55.41175 29589 ft 521 kts 193°
2026-04-17 22:17 -2.83600 55.41325 29140 ft 502 kts 193°
2026-04-17 22:17 -2.87009 55.41460 28654 ft 485 kts 193°
2026-04-17 22:17 -2.90348 55.41566 28189 ft 479 kts 191°
2026-04-17 22:17 -2.93677 55.41651 27746 ft 476 kts 190°
2026-04-17 22:18 -2.96984 55.41733 27298 ft 475 kts 188°
2026-04-17 22:18 -3.00281 55.41824 26858 ft 473 kts 186°
2026-04-17 22:18 -3.03578 55.41928 26404 ft 471 kts 185°
2026-04-17 22:18 -3.06803 55.42041 25982 ft 467 kts 183°
2026-04-17 22:19 -3.10078 55.42166 25533 ft 463 kts 181°
2026-04-17 22:19 -3.13247 55.42292 25091 ft 459 kts 180°
2026-04-17 22:19 -3.16403 55.42420 24629 ft 444 kts 179°
2026-04-17 22:19 -3.19440 55.42546 24169 ft 428 kts 179°
2026-04-17 22:20 -3.22358 55.42666 23720 ft 413 kts 178°
2026-04-17 22:20 -3.25184 55.42781 23252 ft 398 kts 178°
2026-04-17 22:20 -3.27865 55.42889 22802 ft 383 kts 178°
2026-04-17 22:20 -3.30499 55.42996 22334 ft 372 kts 178°
2026-04-17 22:21 -3.33060 55.43101 21881 ft 367 kts 178°
2026-04-17 22:21 -3.35632 55.43204 21435 ft 370 kts 179°
2026-04-17 22:21 -3.38215 55.43304 21004 ft 372 kts 179°
2026-04-17 22:21 -3.40802 55.43402 20569 ft 369 kts 179°
2026-04-17 22:22 -3.43350 55.43499 20106 ft 365 kts 179°
2026-04-17 22:22 -3.45843 55.43593 19658 ft 361 kts 180°
2026-04-17 22:22 -3.48341 55.43688 19215 ft 357 kts 180°
2026-04-17 22:22 -3.50821 55.43782 18765 ft 354 kts 180°
2026-04-17 22:23 -3.53275 55.43874 18322 ft 352 kts 180°
2026-04-17 22:23 -3.55729 55.43966 17876 ft 350 kts 180°
2026-04-17 22:23 -3.58133 55.44056 17441 ft 347 kts 180°
2026-04-17 22:23 -3.60541 55.44146 16986 ft 344 kts 180°
2026-04-17 22:24 -3.62923 55.44235 16537 ft 340 kts 180°
2026-04-17 22:24 -3.65278 55.44324 16081 ft 337 kts 180°
2026-04-17 22:24 -3.67626 55.44413 15635 ft 334 kts 180°
2026-04-17 22:24 -3.69938 55.44500 15175 ft 331 kts 180°
2026-04-17 22:25 -3.72210 55.44586 14748 ft 328 kts 180°
2026-04-17 22:25 -3.74487 55.44672 14329 ft 327 kts 180°
2026-04-17 22:25 -3.76772 55.44758 13878 ft 327 kts 180°
2026-04-17 22:25 -3.79044 55.44843 13410 ft 326 kts 180°
2026-04-17 22:26 -3.81282 55.44928 12966 ft 324 kts 180°
2026-04-17 22:26 -3.83506 55.45013 12476 ft 312 kts 180°
2026-04-17 22:26 -3.85655 55.45097 12028 ft 307 kts 180°
2026-04-17 22:26 -3.87774 55.45179 11573 ft 299 kts 180°
2026-04-17 22:27 -3.89851 55.45258 11149 ft 300 kts 181°
2026-04-17 22:27 -3.91946 55.45336 10684 ft 300 kts 181°
2026-04-17 22:27 -3.94037 55.45413 10226 ft 298 kts 181°
2026-04-17 22:27 -3.96084 55.45490 9784 ft 296 kts 181°
2026-04-17 22:28 -3.98146 55.45568 9336 ft 295 kts 181°
2026-04-17 22:28 -4.00201 55.45646 8901 ft 293 kts 181°
2026-04-17 22:28 -4.02210 55.45721 8498 ft 292 kts 181°
2026-04-17 22:28 -4.04249 55.45798 8169 ft 289 kts 181°
2026-04-17 22:29 -4.06237 55.45874 8108 ft 283 kts 181°
2026-04-17 22:29 -4.08199 55.45950 8104 ft 282 kts 181°
2026-04-17 22:29 -4.10167 55.46024 8094 ft 283 kts 181°
2026-04-17 22:29 -4.12112 55.46096 8110 ft 283 kts 181°
2026-04-17 22:30 -4.14081 55.46170 8115 ft 284 kts 181°
2026-04-17 22:30 -4.16061 55.46245 8081 ft 284 kts 181°
2026-04-17 22:30 -4.18059 55.46316 7816 ft 287 kts 181°
2026-04-17 22:30 -4.20027 55.46341 7572 ft 284 kts 183°
2026-04-17 22:31 -4.21988 55.46340 7311 ft 276 kts 183°
2026-04-17 22:31 -4.23885 55.46333 7048 ft 270 kts 183°
2026-04-17 22:31 -4.25772 55.46325 6750 ft 272 kts 183°
2026-04-17 22:31 -4.27673 55.46318 6417 ft 272 kts 183°
2026-04-17 22:32 -4.29537 55.46314 6100 ft 271 kts 183°
2026-04-17 22:32 -4.31416 55.46313 5783 ft 270 kts 183°
2026-04-17 22:32 -4.33293 55.46313 5526 ft 270 kts 183°
2026-04-17 22:32 -4.35185 55.46313 5201 ft 272 kts 183°
2026-04-17 22:33 -4.37077 55.46314 5015 ft 270 kts 183°
2026-04-17 22:33 -4.38956 55.46315 4762 ft 273 kts 183°
2026-04-17 22:33 -4.40821 55.46318 4614 ft 261 kts 183°
2026-04-17 22:33 -4.42604 55.46321 4602 ft 259 kts 183°
2026-04-17 22:34 -4.44408 55.46320 4453 ft 258 kts 183°
2026-04-17 22:34 -4.46182 55.46321 4176 ft 251 kts 183°
2026-04-17 22:34 -4.47902 55.46321 3913 ft 244 kts 183°
2026-04-17 22:34 -4.49584 55.46322 3655 ft 238 kts 183°
2026-04-17 22:35 -4.51218 55.46322 3432 ft 232 kts 183°
2026-04-17 22:35 -4.52809 55.46327 3299 ft 221 kts 183°
2026-04-17 22:35 -4.54292 55.46340 3062 ft 205 kts 183°
2026-04-17 22:35 -4.55689 55.46353 2711 ft 200 kts 183°
2026-04-17 22:36 -4.57060 55.46364 2406 ft 198 kts 183°
2026-04-17 22:36 -4.58439 55.46370 2129 ft 198 kts 183°
2026-04-17 22:36 -4.59780 55.46374 1869 ft 192 kts 183°
2026-04-17 22:36 -4.61110 55.46376 1619 ft 188 kts 184°
2026-04-17 22:37 -4.62386 55.46397 1580 ft 183 kts 179°
2026-04-17 22:37 -4.63626 55.46757 1360 ft 192 kts 149°
2026-04-17 22:37 -4.64474 55.47803 889 ft 192 kts 120°
2026-04-17 22:37 -4.65116 55.48859 672 ft 165 kts 128°
2026-04-17 22:38 -4.65759 55.49761 402 ft 151 kts 126°
2026-04-17 22:38 -4.66342 55.50603 174 ft 144 kts 124°
2026-04-17 22:38 -4.66909 55.51416 53 ft 141 kts 125°
2026-04-17 22:38 -4.67433 55.52177 27 ft 112 kts 124°
2026-04-17 22:39 -4.67724 55.52596 28 ft 61 kts 125°
2026-04-17 22:39 -4.67944 55.52912 31 ft 45 kts 125°
2026-04-17 22:39 -4.68134 55.53146 30 ft 20 kts 158°
2026-04-17 22:40 -4.68245 55.53178 27 ft 14 kts 153°
2026-04-17 22:40 -4.68231 55.53256 29 ft 15 kts 24°
2026-04-17 22:40 -4.68148 55.53217 26 ft 15 kts 304°
2026-04-17 22:40 -4.68092 55.53133 27 ft 15 kts 304°
2026-04-17 22:41 -4.68039 55.53048 27 ft 15 kts 300°
2026-04-17 22:41 -4.67978 55.52962 27 ft 16 kts 306°
2026-04-17 22:41 -4.67911 55.52868 31 ft 17 kts 306°
2026-04-17 22:41 -4.67840 55.52768 29 ft 18 kts 303°
2026-04-17 22:42 -4.67771 55.52662 27 ft 19 kts 302°
2026-04-17 22:42 -4.67697 55.52550 30 ft 19 kts 303°
2026-04-17 22:42 -4.67620 55.52440 29 ft 19 kts 305°
2026-04-17 22:42 -4.67542 55.52329 29 ft 19 kts 305°
2026-04-17 22:43 -4.67463 55.52217 27 ft 19 kts 305°
2026-04-17 22:43 -4.67386 55.52106 27 ft 19 kts 305°
2026-04-17 22:43 -4.67307 55.51992 27 ft 21 kts 304°
2026-04-17 22:43 -4.67225 55.51873 27 ft 21 kts 304°
2026-04-17 22:44 -4.67141 55.51751 29 ft 22 kts 304°
2026-04-17 22:44 -4.67054 55.51623 30 ft 22 kts 304°
2026-04-17 22:44 -4.66968 55.51497 31 ft 22 kts 304°
2026-04-17 22:44 -4.66905 55.51389 27 ft 13 kts 275°
2026-04-17 22:45 -4.66955 55.51328 28 ft 6 kts 214°
2026-04-17 22:45 -4.66991 55.51302 27 ft 7 kts 220°
2026-04-17 22:45 -4.67009 55.51256 26 ft 8 kts 278°
2026-04-17 22:45 -4.66978 55.51208 27 ft 8 kts 311°
2026-04-17 22:46 -4.66974 55.51202 26 ft 0 kts 312°
2026-04-17 22:46 -4.66967 55.51195 28 ft 3 kts 314°
2026-04-17 22:46 -4.66949 55.51177 27 ft 5 kts 312°
2026-04-17 22:46 -4.66936 55.51155 29 ft 3 kts 288°
2026-04-17 22:47 -4.66946 55.51129 28 ft 5 kts 233°
2026-04-17 22:47 -4.66967 55.51111 29 ft 4 kts 215°
2026-04-17 22:47 -4.66990 55.51095 29 ft 0 kts 213°